CEB143 RPMZ-RPLL

Flight info

Callsign CEB143
Flight time 1h 21m
Altitude 35000
Route BURCO1W BURCO W3 IOO/N0460F360 B472 IBAGO IBAGO5R
Aircraft A339/H-SADE1E2E3GHIJ3J5M1P2RWXY/LB2D1

Departure

Time 2026-04-25 14:13
Airport Zamboanga International Airport (RPMZ)

Arrival

Time 2026-04-25 15:34
Airport Ninoy Aquino International Airport (RPLL)
Time Latitude Longitude Altitude Speed Heading
2026-04-25 13:43 6.92068 122.06076 70 ft 0 kts 155°
2026-04-25 14:03 6.92079 122.06072 69 ft 2 kts 169°
2026-04-25 14:03 6.92094 122.06072 69 ft 2 kts 187°
2026-04-25 14:03 6.92108 122.06074 70 ft 2 kts 203°
2026-04-25 14:03 6.92121 122.06082 69 ft 2 kts 219°
2026-04-25 14:04 6.92131 122.06092 70 ft 2 kts 236°
2026-04-25 14:04 6.92136 122.06101 70 ft 2 kts 247°
2026-04-25 14:04 6.92140 122.06115 70 ft 2 kts 263°
2026-04-25 14:04 6.92141 122.06128 69 ft 0 kts 276°
2026-04-25 14:05 6.92139 122.06135 70 ft 2 kts 282°
2026-04-25 14:05 6.92139 122.06139 70 ft 0 kts 282°
2026-04-25 14:07 6.92139 122.06136 69 ft 1 kts 277°
2026-04-25 14:08 6.92141 122.06114 70 ft 4 kts 275°
2026-04-25 14:08 6.92144 122.06078 70 ft 6 kts 275°
2026-04-25 14:08 6.92162 122.06037 70 ft 7 kts 309°
2026-04-25 14:08 6.92202 122.06007 70 ft 7 kts 356°
2026-04-25 14:09 6.92235 122.06042 70 ft 8 kts 81°
2026-04-25 14:09 6.92234 122.06112 70 ft 11 kts 93°
2026-04-25 14:09 6.92227 122.06203 70 ft 14 kts 94°
2026-04-25 14:09 6.92225 122.06236 70 ft 14 kts 94°
2026-04-25 14:10 6.92212 122.06432 69 ft 18 kts 94°
2026-04-25 14:10 6.92204 122.06566 69 ft 20 kts 94°
2026-04-25 14:10 6.92194 122.06711 69 ft 21 kts 94°
2026-04-25 14:10 6.92183 122.06865 69 ft 22 kts 93°
2026-04-25 14:11 6.92175 122.07006 69 ft 16 kts 93°
2026-04-25 14:11 6.92186 122.07082 69 ft 8 kts 75°
2026-04-25 14:11 6.92175 122.07099 69 ft 2 kts 188°
2026-04-25 14:11 6.92168 122.07069 69 ft 6 kts 274°
2026-04-25 14:12 6.92172 122.07023 69 ft 3 kts 274°
2026-04-25 14:12 6.92172 122.07021 69 ft 0 kts 274°
2026-04-25 14:12 6.92175 122.06972 69 ft 34 kts 274°
2026-04-25 14:12 6.92209 122.06430 70 ft 117 kts 274°
2026-04-25 14:13 6.92281 122.05396 220 ft 170 kts 274°
2026-04-25 14:13 6.92353 122.04168 859 ft 184 kts 273°
2026-04-25 14:13 6.92427 122.02900 1783 ft 184 kts 275°
2026-04-25 14:13 6.92520 122.01636 2437 ft 186 kts 275°
2026-04-25 14:14 6.92620 122.00290 2812 ft 202 kts 275°
2026-04-25 14:14 6.92727 121.98817 3172 ft 220 kts 275°
2026-04-25 14:14 6.92837 121.97228 3539 ft 238 kts 275°
2026-04-25 14:14 6.92953 121.95513 3942 ft 257 kts 275°
2026-04-25 14:15 6.93189 121.93677 4340 ft 273 kts 291°
2026-04-25 14:15 6.93449 121.93075 4482 ft 277 kts 303°
2026-04-25 14:15 6.95965 121.91245 5632 ft 275 kts 344°
2026-04-25 14:15 6.97773 121.90616 6353 ft 278 kts 344°
2026-04-25 14:16 6.99612 121.89965 7037 ft 283 kts 344°
2026-04-25 14:16 7.01483 121.89288 7712 ft 286 kts 343°
2026-04-25 14:16 7.03358 121.88599 8379 ft 290 kts 343°
2026-04-25 14:16 7.05275 121.87887 9040 ft 293 kts 343°
2026-04-25 14:17 7.07199 121.87229 9656 ft 294 kts 352°
2026-04-25 14:17 7.09223 121.87257 10256 ft 290 kts 18°
2026-04-25 14:17 7.11042 121.88126 10697 ft 296 kts 40°
2026-04-25 14:17 7.12579 121.89562 11049 ft 308 kts 46°
2026-04-25 14:18 7.14127 121.91086 11592 ft 314 kts 46°
2026-04-25 14:18 7.15695 121.92611 12206 ft 317 kts 46°
2026-04-25 14:18 7.17302 121.94161 12675 ft 325 kts 45°
2026-04-25 14:18 7.18963 121.95752 13166 ft 332 kts 45°
2026-04-25 14:19 7.20653 121.97362 13744 ft 335 kts 45°
2026-04-25 14:19 7.22347 121.98977 14314 ft 339 kts 45°
2026-04-25 14:19 7.24090 122.00636 14890 ft 342 kts 45°
2026-04-25 14:19 7.25824 122.02288 15457 ft 345 kts 45°
2026-04-25 14:20 7.27568 122.03948 16022 ft 348 kts 45°
2026-04-25 14:20 7.28166 122.04517 16219 ft 349 kts 45°
2026-04-25 14:20 7.31119 122.07331 17156 ft 354 kts 45°
2026-04-25 14:20 7.32378 122.08499 17533 ft 356 kts 40°
2026-04-25 14:21 7.34498 122.09817 18055 ft 362 kts 25°
2026-04-25 14:21 7.36928 122.10528 18605 ft 366 kts 10°
2026-04-25 14:21 7.39492 122.10839 19167 ft 369 kts
2026-04-25 14:21 7.41675 122.11070 19611 ft 372 kts
2026-04-25 14:22 7.44250 122.11337 20115 ft 375 kts
2026-04-25 14:22 7.46886 122.11616 20627 ft 377 kts
2026-04-25 14:22 7.49504 122.11897 21123 ft 380 kts
2026-04-25 14:22 7.52148 122.12183 21601 ft 383 kts
2026-04-25 14:23 7.54797 122.12475 22064 ft 386 kts
2026-04-25 14:23 7.57478 122.12772 22520 ft 389 kts
2026-04-25 14:23 7.60187 122.13071 22969 ft 392 kts
2026-04-25 14:23 7.62946 122.13377 23421 ft 395 kts
2026-04-25 14:24 7.65665 122.13680 23863 ft 397 kts
2026-04-25 14:24 7.68423 122.13989 24298 ft 400 kts
2026-04-25 14:24 7.71218 122.14298 24721 ft 403 kts
2026-04-25 14:24 7.74035 122.14610 25141 ft 406 kts
2026-04-25 14:25 7.76857 122.14925 25541 ft 409 kts
2026-04-25 14:25 7.79687 122.15240 25931 ft 412 kts
2026-04-25 14:25 7.82562 122.15559 26314 ft 415 kts
2026-04-25 14:25 7.84504 122.15775 26565 ft 418 kts
2026-04-25 14:26 7.88360 122.16202 27052 ft 422 kts
2026-04-25 14:26 7.91291 122.16528 27414 ft 425 kts
2026-04-25 14:26 7.94269 122.16860 27772 ft 427 kts
2026-04-25 14:26 7.97235 122.17191 28126 ft 430 kts
2026-04-25 14:27 8.00246 122.17525 28478 ft 433 kts
2026-04-25 14:27 8.03215 122.17854 28824 ft 436 kts
2026-04-25 14:27 8.06261 122.18192 29190 ft 438 kts
2026-04-25 14:27 8.09294 122.18529 29554 ft 441 kts
2026-04-25 14:28 8.12387 122.18873 29909 ft 443 kts
2026-04-25 14:28 8.15453 122.19214 30262 ft 445 kts
2026-04-25 14:28 8.18553 122.19560 30605 ft 448 kts
2026-04-25 14:28 8.21639 122.19904 30940 ft 450 kts
2026-04-25 14:29 8.24795 122.20255 31272 ft 453 kts
2026-04-25 14:29 8.27918 122.20603 31593 ft 455 kts
2026-04-25 14:29 8.31087 122.20956 31905 ft 458 kts
2026-04-25 14:29 8.34248 122.21308 32206 ft 460 kts
2026-04-25 14:30 8.37466 122.21666 32524 ft 462 kts
2026-04-25 14:30 8.43887 122.22383 33476 ft 461 kts
2026-04-25 14:30 8.47069 122.22740 33904 ft 461 kts
2026-04-25 14:31 8.50258 122.23096 34266 ft 462 kts
2026-04-25 14:31 8.53466 122.23456 34626 ft 464 kts
2026-04-25 14:31 8.56698 122.23816 34871 ft 466 kts
2026-04-25 14:31 8.59944 122.24178 34873 ft 466 kts
2026-04-25 14:32 8.66384 122.24895 34876 ft 465 kts
2026-04-25 14:32 8.72823 122.25613 34874 ft 466 kts
2026-04-25 14:33 8.79312 122.26338 34871 ft 466 kts
2026-04-25 14:33 8.85774 122.27060 34867 ft 466 kts
2026-04-25 14:34 8.92222 122.27780 34860 ft 466 kts
2026-04-25 14:34 8.98664 122.28500 34863 ft 466 kts
2026-04-25 14:35 9.05120 122.29222 34871 ft 466 kts
2026-04-25 14:35 9.11598 122.29948 34875 ft 466 kts
2026-04-25 14:36 9.18060 122.30671 34875 ft 466 kts
2026-04-25 14:36 9.24520 122.31394 34885 ft 466 kts
2026-04-25 14:37 9.30983 122.32117 34881 ft 466 kts
2026-04-25 14:37 9.37462 122.32843 34880 ft 466 kts
2026-04-25 14:38 9.43901 122.33565 34883 ft 466 kts
2026-04-25 14:38 9.50352 122.34288 34880 ft 466 kts
2026-04-25 14:39 9.56809 122.35010 34883 ft 466 kts
2026-04-25 14:39 9.63289 122.35736 34881 ft 467 kts
2026-04-25 14:40 9.69735 122.36459 34882 ft 467 kts
2026-04-25 14:40 9.76218 122.37186 34887 ft 467 kts
2026-04-25 14:41 9.82706 122.37910 34888 ft 468 kts
2026-04-25 14:41 9.89206 122.38635 34887 ft 467 kts
2026-04-25 14:42 9.94595 122.39237 34888 ft 467 kts
2026-04-25 14:42 10.02146 122.40083 34885 ft 467 kts
2026-04-25 14:43 10.08606 122.40811 34887 ft 467 kts
2026-04-25 14:43 10.15089 122.41541 34887 ft 468 kts
2026-04-25 14:44 10.21589 122.42272 34885 ft 467 kts
2026-04-25 14:44 10.28082 122.43001 34883 ft 467 kts
2026-04-25 14:45 10.34564 122.43729 34887 ft 467 kts
2026-04-25 14:45 10.41039 122.44457 34886 ft 467 kts
2026-04-25 14:46 10.47503 122.45186 34887 ft 468 kts
2026-04-25 14:46 10.54016 122.45919 34890 ft 468 kts
2026-04-25 14:47 10.59390 122.46523 34888 ft 468 kts
2026-04-25 14:47 10.66971 122.47373 34886 ft 468 kts
2026-04-25 14:48 10.73480 122.48104 34889 ft 469 kts
2026-04-25 14:48 10.79988 122.48309 34889 ft 469 kts 357°
2026-04-25 14:49 10.86459 122.47392 34893 ft 469 kts 346°
2026-04-25 14:49 10.92687 122.45369 34902 ft 468 kts 337°
2026-04-25 14:50 10.98693 122.42762 34924 ft 467 kts 336°
2026-04-25 14:50 11.04654 122.40146 34941 ft 466 kts 336°
2026-04-25 14:51 11.10622 122.37552 34947 ft 467 kts 336°
2026-04-25 14:51 11.16595 122.34965 34957 ft 466 kts 336°
2026-04-25 14:52 11.22610 122.32373 34969 ft 467 kts 336°
2026-04-25 14:52 11.27571 122.30231 34973 ft 467 kts 336°
2026-04-25 14:53 11.34549 122.27211 34981 ft 466 kts 336°
2026-04-25 14:53 11.40539 122.24616 34977 ft 466 kts 336°
2026-04-25 14:54 11.46493 122.22033 34968 ft 465 kts 336°
2026-04-25 14:54 11.52470 122.19439 34958 ft 465 kts 336°
2026-04-25 14:55 11.58432 122.16851 34944 ft 464 kts 335°
2026-04-25 14:55 11.64384 122.14265 34932 ft 464 kts 336°
2026-04-25 14:56 11.70348 122.11673 34924 ft 464 kts 335°
2026-04-25 14:56 11.76316 122.09080 34918 ft 464 kts 335°
2026-04-25 14:57 11.82253 122.06499 34914 ft 463 kts 335°
2026-04-25 14:57 11.88189 122.03915 34909 ft 463 kts 335°
2026-04-25 14:58 11.94102 122.01341 34898 ft 462 kts 335°
2026-04-25 14:58 12.00027 121.98759 34896 ft 462 kts 335°
2026-04-25 14:59 12.05928 121.96187 34896 ft 462 kts 335°
2026-04-25 14:59 12.11848 121.93604 34896 ft 462 kts 335°
2026-04-25 15:00 12.17772 121.91017 34897 ft 462 kts 335°
2026-04-25 15:00 12.23727 121.88417 34897 ft 463 kts 335°
2026-04-25 15:01 12.29680 121.85814 34899 ft 463 kts 335°
2026-04-25 15:01 12.35572 121.83236 34903 ft 462 kts 335°
2026-04-25 15:02 12.41496 121.80653 34901 ft 462 kts 335°
2026-04-25 15:02 12.47476 121.78044 34914 ft 462 kts 335°
2026-04-25 15:03 12.53393 121.75456 34927 ft 462 kts 335°
2026-04-25 15:03 12.59305 121.72866 34933 ft 463 kts 334°
2026-04-25 15:04 12.65265 121.70252 34935 ft 463 kts 334°
2026-04-25 15:04 12.71129 121.67679 34695 ft 458 kts 334°
2026-04-25 15:05 12.74096 121.66377 33981 ft 462 kts 334°
2026-04-25 15:05 12.77055 121.65077 33148 ft 466 kts 334°
2026-04-25 15:05 12.80035 121.63768 32358 ft 469 kts 334°
2026-04-25 15:06 12.86089 121.61108 30822 ft 473 kts 334°
2026-04-25 15:06 12.89113 121.59781 30040 ft 467 kts 334°
2026-04-25 15:06 12.92098 121.58469 29288 ft 462 kts 334°
2026-04-25 15:06 12.95009 121.57190 28547 ft 456 kts 334°
2026-04-25 15:07 12.97921 121.55908 27833 ft 451 kts 334°
2026-04-25 15:07 13.00768 121.54655 27129 ft 445 kts 335°
2026-04-25 15:07 13.03609 121.53403 26418 ft 441 kts 335°
2026-04-25 15:07 13.06410 121.52168 25713 ft 436 kts 335°
2026-04-25 15:08 13.09183 121.50947 25008 ft 431 kts 335°
2026-04-25 15:08 13.11908 121.49747 24291 ft 424 kts 335°
2026-04-25 15:08 13.14589 121.48565 23593 ft 416 kts 335°
2026-04-25 15:08 13.17213 121.47407 22909 ft 408 kts 335°
2026-04-25 15:09 13.19804 121.46265 22231 ft 401 kts 335°
2026-04-25 15:09 13.22374 121.45132 21548 ft 394 kts 335°
2026-04-25 15:09 13.27315 121.42951 20223 ft 386 kts 335°
2026-04-25 15:10 13.29782 121.41861 19542 ft 384 kts 336°
2026-04-25 15:10 13.32234 121.40778 18869 ft 383 kts 336°
2026-04-25 15:10 13.37105 121.38626 17521 ft 379 kts 336°
2026-04-25 15:11 13.38724 121.37911 17075 ft 378 kts 336°
2026-04-25 15:11 13.41950 121.36485 16278 ft 371 kts 336°
2026-04-25 15:11 13.44264 121.35461 15987 ft 358 kts 336°
2026-04-25 15:12 13.48826 121.33443 15956 ft 352 kts 336°
2026-04-25 15:12 13.51018 121.32475 15939 ft 340 kts 336°
2026-04-25 15:12 13.53156 121.31467 15938 ft 326 kts 329°
2026-04-25 15:12 13.53795 121.31074 15940 ft 322 kts 326°
2026-04-25 15:13 13.56566 121.28545 15843 ft 318 kts 311°
2026-04-25 15:13 13.59470 121.25135 15198 ft 318 kts 310°
2026-04-25 15:13 13.60918 121.23421 14965 ft 314 kts 310°
2026-04-25 15:14 13.62365 121.21716 14963 ft 316 kts 310°
2026-04-25 15:14 13.63807 121.20023 14966 ft 316 kts 310°
2026-04-25 15:14 13.65232 121.18351 14820 ft 313 kts 310°
2026-04-25 15:14 13.66473 121.16898 14544 ft 313 kts 310°
2026-04-25 15:15 13.67418 121.15791 14327 ft 313 kts 310°
2026-04-25 15:15 13.68854 121.14110 14033 ft 311 kts 310°
2026-04-25 15:15 13.70282 121.12438 13751 ft 310 kts 310°
2026-04-25 15:15 13.71703 121.10774 13465 ft 309 kts 310°
2026-04-25 15:16 13.73113 121.09123 13165 ft 308 kts 310°
2026-04-25 15:16 13.74527 121.07468 12874 ft 307 kts 310°
2026-04-25 15:16 13.77337 121.04172 12303 ft 305 kts 311°
2026-04-25 15:17 13.80115 121.00919 11715 ft 304 kts 311°
2026-04-25 15:17 13.81561 120.99323 11418 ft 303 kts 321°
2026-04-25 15:17 13.83407 120.98279 11110 ft 301 kts 344°
2026-04-25 15:18 13.85455 120.97924 10854 ft 298 kts 355°
2026-04-25 15:18 13.89596 120.97534 10311 ft 295 kts 355°
2026-04-25 15:18 13.91632 120.97334 10048 ft 294 kts 355°
2026-04-25 15:19 13.93677 120.97124 9700 ft 293 kts 355°
2026-04-25 15:19 13.95011 120.96985 9478 ft 292 kts 355°
2026-04-25 15:19 13.97703 120.96703 9047 ft 289 kts 355°
2026-04-25 15:19 13.99708 120.96493 8720 ft 288 kts 355°
2026-04-25 15:20 14.01722 120.96281 8392 ft 286 kts 355°
2026-04-25 15:20 14.03690 120.96073 8071 ft 284 kts 355°
2026-04-25 15:20 14.05658 120.95865 7747 ft 283 kts 356°
2026-04-25 15:20 14.07597 120.95465 7387 ft 284 kts 338°
2026-04-25 15:21 14.09194 120.94271 7079 ft 288 kts 311°
2026-04-25 15:21 14.10270 120.92544 6841 ft 287 kts 300°
2026-04-25 15:21 14.11186 120.90704 6582 ft 287 kts 298°
2026-04-25 15:21 14.12053 120.88879 6327 ft 286 kts 297°
2026-04-25 15:22 14.12927 120.87026 6081 ft 285 kts 297°
2026-04-25 15:22 14.13788 120.85201 5841 ft 283 kts 297°
2026-04-25 15:22 14.14652 120.83370 5592 ft 282 kts 297°
2026-04-25 15:22 14.15498 120.81575 5336 ft 282 kts 297°
2026-04-25 15:23 14.16356 120.79754 5087 ft 281 kts 297°
2026-04-25 15:23 14.17289 120.78010 4979 ft 276 kts 312°
2026-04-25 15:23 14.18807 120.76815 4984 ft 274 kts 334°
2026-04-25 15:23 14.20535 120.75951 4986 ft 274 kts 337°
2026-04-25 15:24 14.22247 120.75105 4982 ft 269 kts 336°
2026-04-25 15:24 14.23879 120.74238 4979 ft 259 kts 334°
2026-04-25 15:24 14.25449 120.73360 4970 ft 249 kts 333°
2026-04-25 15:24 14.26442 120.72790 4968 ft 242 kts 333°
2026-04-25 15:25 14.28360 120.71676 4870 ft 233 kts 333°
2026-04-25 15:25 14.29755 120.70865 4756 ft 227 kts 335°
2026-04-25 15:25 14.31234 120.70424 4617 ft 216 kts
2026-04-25 15:25 14.32648 120.70709 4492 ft 204 kts 32°
2026-04-25 15:26 14.33739 120.71590 4383 ft 197 kts 50°
2026-04-25 15:26 14.34563 120.72715 4275 ft 190 kts 58°
2026-04-25 15:26 14.35247 120.73856 4159 ft 183 kts 60°
2026-04-25 15:26 14.35879 120.74968 4024 ft 177 kts 60°
2026-04-25 15:27 14.36482 120.76047 3899 ft 171 kts 60°
2026-04-25 15:27 14.37059 120.77084 3772 ft 163 kts 61°
2026-04-25 15:27 14.38150 120.79048 3486 ft 150 kts 61°
2026-04-25 15:28 14.38663 120.79974 3296 ft 148 kts 61°
2026-04-25 15:28 14.39173 120.80896 3069 ft 147 kts 62°
2026-04-25 15:28 14.39675 120.81802 2990 ft 144 kts 61°
2026-04-25 15:28 14.40171 120.82698 2985 ft 143 kts 61°
2026-04-25 15:29 14.40663 120.83585 2981 ft 143 kts 61°
2026-04-25 15:29 14.41162 120.84486 2981 ft 143 kts 60°
2026-04-25 15:29 14.41655 120.85376 2977 ft 143 kts 60°
2026-04-25 15:29 14.42153 120.86272 2947 ft 143 kts 60°
2026-04-25 15:30 14.42647 120.87164 2769 ft 143 kts 60°
2026-04-25 15:30 14.43142 120.88055 2579 ft 142 kts 60°
2026-04-25 15:30 14.43637 120.88947 2396 ft 142 kts 60°
2026-04-25 15:30 14.44124 120.89825 2221 ft 141 kts 60°
2026-04-25 15:31 14.44612 120.90704 2044 ft 141 kts 60°
2026-04-25 15:31 14.45106 120.91593 1867 ft 141 kts 60°
2026-04-25 15:31 14.45587 120.92459 1690 ft 140 kts 59°
2026-04-25 15:31 14.46076 120.93340 1508 ft 140 kts 59°
2026-04-25 15:32 14.46564 120.94218 1327 ft 140 kts 60°
2026-04-25 15:32 14.47046 120.95086 1150 ft 140 kts 59°
2026-04-25 15:32 14.47536 120.95962 978 ft 140 kts 60°
2026-04-25 15:33 14.48503 120.97704 627 ft 141 kts 61°
2026-04-25 15:33 14.48991 120.98589 462 ft 141 kts 61°
2026-04-25 15:33 14.49476 120.99464 286 ft 142 kts 62°
2026-04-25 15:33 14.49966 121.00345 103 ft 140 kts 61°
2026-04-25 15:34 14.50409 121.01142 90 ft 106 kts 61°
2026-04-25 15:34 14.50688 121.01639 90 ft 53 kts 60°
2026-04-25 15:34 14.50808 121.01859 90 ft 29 kts 60°
2026-04-25 15:34 14.50875 121.01978 90 ft 27 kts 60°
2026-04-25 15:35 14.51118 121.02283 90 ft 14 kts 41°
2026-04-25 15:35 14.51187 121.02269 90 ft 12 kts 270°
2026-04-25 15:35 14.51145 121.02175 90 ft 15 kts 240°
2026-04-25 15:36 14.51070 121.01990 90 ft 8 kts 300°
2026-04-25 15:36 14.51120 121.01936 90 ft 11 kts 316°
2026-04-25 15:36 14.51185 121.01871 90 ft 14 kts 315°
2026-04-25 15:37 14.51239 121.01814 90 ft 13 kts 314°
2026-04-25 15:37 14.51299 121.01752 90 ft 15 kts 315°
2026-04-25 15:37 14.51375 121.01673 90 ft 17 kts 315°
2026-04-25 15:37 14.51450 121.01595 90 ft 14 kts 314°
2026-04-25 15:38 14.51513 121.01529 90 ft 8 kts 314°
2026-04-25 15:38 14.51551 121.01517 90 ft 6 kts 19°
2026-04-25 15:38 14.51590 121.01545 90 ft 4 kts 39°
2026-04-25 15:38 14.51607 121.01561 90 ft 0 kts 44°